Hillsdale, MI

5:57 AM EST on February 24, 2018 (GMT -0500)
Hillsdale Municipal

Weather History for KJYM - November, 2012

Change the Weather History Date:

Thursday, November 8, 2012

  Actual Average Record
Temperature  
Mean Temperature 37 °F -  
Max Temperature 50 °F 48 °F 64 °F (1975)
Min Temperature 24 °F 31 °F 7 °F (1991)
Degree Days  
Heating Degree Days 28    
Moisture  
Dew Point 30 °F    
Average Humidity 77    
Maximum Humidity 97    
Minimum Humidity 47    
Precipitation  
Precipitation 0.00 in - - ()
Sea Level Pressure  
Sea Level Pressure 30.15 in    
Wind  
Wind Speed 2 mph (West)    
Max Wind Speed 9 mph    
Max Gust Speed -    
Visibility 7 miles    
Events      
Averages and records for this station are not official NWS values.
T = Trace of Precipitation, MM = Missing Value Source: NWS Daily Summary

Daily Weather History Graph

Daily Weather History Graph

Search for Another Location

Airport or City:

Trip Planner

Search our weather history database for the weather conditions in past years. The results will help you decide how hot, cold, wet, or windy it might be!

Date:

Astronomy

Nov. 08, 2012 Rise Set
Actual Time 7:20 AM EST 5:23 PM EST
Civil Twilight 6:50 AM EST 5:53 PM EST
Nautical Twilight 6:17 AM EST 6:26 PM EST
Astronomical Twilight 5:44 AM EST 6:59 PM EST
Moon 1:08 AM EST (11/8) 2:09 PM EST (11/8)
Length of Visible Light 11h 02m
Length of Day
10h 03m
Waning Crescent, 33% of the Moon is Illuminated
Nov 8
Waning Crescent
Nov 13
New
Nov 20
First Quarter
Nov 28
Full
Dec 6
Last Quarter

Hourly Weather History & Observations

Time (EST) Temp. Windchill Dew Point Humidity Pressure Visibility Wind Dir Wind Speed Gust Speed Precip Events Conditions
12:15 AM 29.8 °F 26.3 °F 27.3 °F 90% 30.13 in 5.0 mi ENE 3.5 mph - N/A   Clear
12:34 AM 29.5 °F - 27.7 °F 93% 30.13 in 5.0 mi Calm Calm - N/A   Clear
12:55 AM 30.2 °F 26.7 °F 28.6 °F 94% 30.13 in 5.0 mi East 3.5 mph - N/A   Clear
1:14 AM 31.5 °F - 29.8 °F 94% 30.13 in 7.0 mi Calm Calm - N/A   Clear
1:34 AM 30.7 °F - 28.9 °F 93% 30.13 in 5.0 mi Calm Calm - N/A   Clear
1:54 AM 30.2 °F - 28.8 °F 94% 30.13 in 4.0 mi Calm Calm - N/A   Clear
2:14 AM 29.5 °F - 28.4 °F 96% 30.13 in 4.0 mi Calm Calm - N/A   Clear
2:35 AM 29.7 °F - 28.6 °F 96% 30.13 in 4.0 mi Calm Calm - N/A   Clear
2:54 AM 28.0 °F - 27.0 °F 96% 30.13 in 4.0 mi Calm Calm - N/A   Clear
3:14 AM 27.3 °F - 26.2 °F 96% 30.13 in 1.2 mi Calm Calm - N/A   Mist
3:34 AM 27.9 °F - 26.8 °F 96% 30.14 in 5.0 mi Calm Calm - N/A   Clear
3:54 AM 28.0 °F - 27.1 °F 96% 30.13 in 5.0 mi Calm Calm - N/A   Clear
4:15 AM 28.8 °F - 27.9 °F 96% 30.14 in 3.0 mi Calm Calm - N/A   Clear
4:34 AM 26.6 °F - 25.7 °F 96% 30.15 in 1.5 mi Calm Calm - N/A   Mist
4:55 AM 26.6 °F - 25.7 °F 96% 30.15 in 5.0 mi Calm Calm - N/A   Clear
5:14 AM 27.5 °F - 26.6 °F 96% 30.15 in 2.5 mi Calm Calm - N/A   Clear
5:34 AM 27.5 °F - 26.4 °F 96% 30.15 in 0.8 mi Calm Calm - N/A   Mist
6:14 AM 25.5 °F - 24.8 °F 97% 30.16 in 2.5 mi Calm Calm - N/A   Clear
6:34 AM 24.8 °F - 23.7 °F 96% 30.16 in 3.0 mi Calm Calm - N/A   Clear
6:55 AM 25.2 °F - 24.1 °F 96% 30.17 in 3.0 mi Calm Calm - N/A   Clear
7:14 AM 25.7 °F - 24.8 °F 96% 30.17 in 3.0 mi Calm Calm - N/A   Clear
7:55 AM 27.0 °F - 26.2 °F 97% 30.18 in 1.2 mi Calm Calm - N/A   Mist
8:15 AM 27.9 °F - 27.1 °F 97% 30.19 in 1.2 mi Calm Calm - N/A   Mist
8:34 AM 30.4 °F - 29.5 °F 96% 30.19 in 2.0 mi Calm Calm - N/A   Clear
8:55 AM 32.9 °F - 32.0 °F 96% 30.19 in 2.5 mi Calm Calm - N/A   Clear
9:14 AM 36.5 °F - 35.1 °F 95% 30.19 in 4.0 mi Calm Calm - N/A   Clear
9:34 AM 38.8 °F - 34.5 °F 84% 30.19 in 5.0 mi Calm Calm - N/A   Clear
9:55 AM 40.3 °F - 34.0 °F 78% 30.20 in 7.0 mi Calm Calm - N/A   Clear
10:14 AM 41.4 °F - 34.2 °F 76% 30.20 in 7.0 mi Calm Calm - N/A   Clear
10:35 AM 42.4 °F - 33.8 °F 71% 30.20 in 7.0 mi Calm Calm - N/A   Clear
10:55 AM 43.5 °F - 33.3 °F 67% 30.19 in 10.0 mi Calm Calm - N/A   Clear
11:35 AM 44.6 °F - 30.7 °F 58% 30.19 in 10.0 mi Calm Calm - N/A   Clear
11:55 AM 44.8 °F - 30.6 °F 57% 30.18 in 10.0 mi Calm Calm - N/A   Clear
12:14 PM 45.9 °F - 31.3 °F 57% 30.17 in 10.0 mi Calm Calm - N/A   Clear
12:35 PM 46.9 °F - 30.2 °F 52% 30.16 in 10.0 mi West 3.5 mph - N/A   Clear
12:54 PM 47.7 °F - 30.7 °F 52% 30.16 in 10.0 mi Calm Calm - N/A   Clear
1:14 PM 48.4 °F - 30.4 °F 50% 30.15 in 10.0 mi West 5.8 mph - N/A   Clear
1:34 PM 48.6 °F - 30.6 °F 50% 30.15 in 10.0 mi WNW 3.5 mph - N/A   Clear
1:54 PM 49.1 °F - 30.4 °F 49% 30.14 in 10.0 mi Calm Calm - N/A   Scattered Clouds
2:15 PM 50.4 °F - 30.9 °F 47% 30.14 in 10.0 mi WSW 5.8 mph - N/A   Scattered Clouds
2:34 PM 49.6 °F - 31.1 °F 49% 30.14 in 10.0 mi NW 4.6 mph - N/A   Mostly Cloudy
2:54 PM 48.6 °F - 31.8 °F 52% 30.14 in 10.0 mi West 9.2 mph - N/A   Mostly Cloudy
3:15 PM 48.6 °F - 31.3 °F 51% 30.13 in 10.0 mi West 5.8 mph - N/A   Mostly Cloudy
3:34 PM 48.2 °F - 30.9 °F 51% 30.13 in 10.0 mi West 8.1 mph - N/A   Mostly Cloudy
3:54 PM 48.7 °F - 30.7 °F 50% 30.13 in 10.0 mi West 5.8 mph - N/A   Scattered Clouds
4:14 PM 48.6 °F - 30.4 °F 50% 30.13 in 10.0 mi Calm Calm - N/A   Mostly Cloudy
4:34 PM 47.8 °F - 31.1 °F 52% 30.13 in 10.0 mi WNW 9.2 mph - N/A   Scattered Clouds
4:55 PM 46.2 °F 42.2 °F 30.7 °F 55% 30.13 in 10.0 mi West 8.1 mph - N/A   Clear
5:14 PM 44.6 °F 41.4 °F 30.7 °F 58% 30.13 in 10.0 mi WNW 5.8 mph - N/A   Clear
5:35 PM 43.2 °F 41.5 °F 30.4 °F 61% 30.13 in 10.0 mi WNW 3.5 mph - N/A   Clear
5:54 PM 41.7 °F 39.8 °F 29.7 °F 62% 30.13 in 10.0 mi West 3.5 mph - N/A   Clear
6:14 PM 41.2 °F - 28.9 °F 62% 30.13 in 10.0 mi Calm Calm - N/A   Clear
6:35 PM 39.7 °F - 28.9 °F 65% 30.13 in 10.0 mi Calm Calm - N/A   Clear
6:54 PM 40.5 °F - 29.1 °F 64% 30.14 in 10.0 mi Calm Calm - N/A   Clear
7:15 PM 39.0 °F - 28.9 °F 67% 30.14 in 10.0 mi Calm Calm - N/A   Clear
7:35 PM 38.7 °F - 28.9 °F 68% 30.14 in 10.0 mi Calm Calm - N/A   Clear
7:54 PM 36.7 °F - 28.9 °F 74% 30.14 in 10.0 mi Calm Calm - N/A   Clear
8:15 PM 36.5 °F - 29.7 °F 76% 30.13 in 10.0 mi Calm Calm - N/A   Clear
8:19 PM 36.3 °F - 29.7 °F 77% 30.13 in 10.0 mi Calm Calm - N/A   Clear
8:55 PM 39.2 °F 37.0 °F 30.2 °F 70% 30.13 in 7.0 mi WSW 3.5 mph - N/A   Clear
9:15 PM 39.2 °F - 32.0 °F 75% 30.13 in 7.0 mi SW 2.3 mph - N/A   Clear
9:35 PM 37.4 °F 33.8 °F 33.8 °F 87% 30.13 in 7.0 mi SW 4.6 mph - N/A   Clear
9:55 PM 37.4 °F 33.8 °F 33.8 °F 87% 30.12 in 5.0 mi SW 4.6 mph - N/A   Clear
10:15 PM 37.4 °F 33.8 °F 33.8 °F 87% 30.13 in 5.0 mi SW 4.6 mph - N/A   Clear
10:35 PM 37.4 °F 34.9 °F 33.8 °F 87% 30.13 in 5.0 mi WSW 3.5 mph - N/A   Clear
10:55 PM 37.4 °F - 33.8 °F 87% 30.12 in 5.0 mi WSW 2.3 mph - N/A   Clear
11:15 PM 37.4 °F 34.9 °F 33.8 °F 87% 30.12 in 5.0 mi WSW 3.5 mph - N/A   Clear
11:55 PM 35.6 °F - 30.2 °F 81% 30.13 in 5.0 mi WSW 1.2 mph - N/A   Clear